Lexington Weather

Lexington, Massachusetts, USA

45°F
5/12/2021 3:11am 
  • Lexington Conditions: Clear
  • Temperature: 45.3°F / 7.4°CColder 1.6°F than last hour.
  • Dew Point: 31.8°FIncreased 1.1°Fsince last hour.
  • Relative Humidity: 59%Increased 6.0% since last hour.
  • Wind: Wind from NW NW Calm, 10-min avg: 1 mph, gust: 4 mph
  • Barometer: 29.92 in Steady
  • Visibility: 10 miles
  • Rain Today: 0.00 in
  •   

Regional Weather Roundup
for Boston / Norton, MA

        
000
ASUS41 KBOX 092305
RWRBOX

REGIONAL WEATHER ROUNDUP
NATIONAL WEATHER SERVICE BOSTON/NORTON MA
700 PM EDT SUN MAY 09 2021

NOTE:  "FAIR" INDICATES FEW OR NO CLOUDS BELOW 12,000 FEET WITH NO 
SIGNIFICANT WEATHER AND/OR OBSTRUCTIONS TO VISIBILITY.

MAZALL-100000-
EASTERN MASSACHUSETTS
  
CITY           SKY/WX    TMP DP  RH WIND       PRES   REMARKS
BOSTON         CLOUDY    65  29  25 W10       29.87S                  
BEVERLY        MOCLDY    63  31  30 W14G21    29.85S                  
LAWRENCE       CLOUDY    62  30  29 W10       29.87S                  
BEDFORD        MOCLDY    62  30  29 W8        29.86S                  
BLUE HILL        N/A     59  30  33 W12       29.87R                  
NORWOOD        MOCLDY    63  31  30 W6        29.87S                  
MARSHFIELD     MOCLDY    61  39  44 SW10      29.89R                  
PLYMOUTH       MOCLDY    57  38  48 SW14G25   29.90R                  
TAUNTON        CLOUDY    58  40  51 S8        29.90S                  
NEW BEDFORD    CLOUDY    55  40  56 SW10      29.91S                  
$$

MAZALL-100000-
CAPE COD AND THE ISLANDS
  
CITY           SKY/WX    TMP DP  RH WIND       PRES   REMARKS
FALMOUTH       NOT AVBL                                               
HYANNIS        CLOUDY    55  41  59 SW18G26   29.92R                  
CHATHAM        MOCLDY    54  42  64 SW9G23    29.94S                  
PROVINCETOWN   MOCLDY    53  45  74 SW20G26   29.91R                  
NANTUCKET      CLOUDY    52  44  74 SW21      29.95F                  
MARTHAS VNYRD  CLOUDY    53  41  63 SW10G21   29.94S                  
$$
 
MAZALL-100000-
CENTRAL AND WESTERN MASSACHUSETTS
  
CITY           SKY/WX    TMP DP  RH WIND       PRES   REMARKS
WORCESTER      CLOUDY    58  30  34 W8        29.89S                  
FITCHBURG      CLOUDY    60  32  34 W5        29.88S                  
ORANGE         CLOUDY    60  32  34 SW3       29.88F                  
SPRINGFIELD    CLOUDY    60  29  30 W13       29.89R                  
WESTFIELD      CLOUDY    59  32  36 W16G22    29.91R                  
NORTH ADAMS    CLOUDY    54  38  54 S9G21     29.91R                  
PITTSFIELD     CLOUDY    52  33  48 S10       29.90R                  
$$
 
RIZALL-100000-
RHODE ISLAND
  
CITY           SKY/WX    TMP DP  RH WIND       PRES   REMARKS
PROVIDENCE     CLOUDY    59  40  49 SW17      29.92R                  
NEWPORT        CLOUDY    53  40  61 SW8G17    29.93R                  
BLOCK ISLAND   CLOUDY    51  43  74 SW22G28   29.95F                  
SMITHFIELD       N/A     57  37  47 SW9G18    29.91R                  
WESTERLY       CLOUDY    52  42  69 W7        29.95R                  
$$
 
CTZALL-100000-
CONNECTICUT
  
CITY           SKY/WX    TMP DP  RH WIND       PRES   REMARKS
BRADLEY INTL   LGT RAIN  55  40  56 SW16G24   29.93R                  
HARTFORD       LGT RAIN  56  42  59 SW12G17   29.95R                  
BRIDGEPORT     RAIN      52  46  80 SW10      29.98R                  
DANBURY        RAIN      49  44  83 W5        29.98R                  
GROTON         CLOUDY    53  44  71 SW10      29.95R                  
NEW HAVEN      LGT RAIN  53  46  77 SW8       29.98R                  
CHESTER        LGT RAIN  52  43  71 VRB6G16   29.97R                  
MERIDEN        LGT RAIN  51  43  74 VRB3      29.97R                  
WILLIMANTIC    LGT RAIN  55  41  59 SW15G23   29.95R                  
OXFORD         LGT RAIN  47  47 100 SW5       29.98R                  
$$

MEZ002-015-021-024-NHZ003-005-008-011-012-014-VTZ005-008-100000-
NORTHERN NEW ENGLAND
  
CITY           SKY/WX    TMP DP  RH WIND       PRES   REMARKS
PORTLAND ME    MOCLDY    54  41  61 S7        29.84R                  
BANGOR ME      MOCLDY    62  29  28 NW7       29.79R                  
CONCORD NH     CLOUDY    59  33  37 NW6       29.86F                  
MANCHESTER NH  CLOUDY    63  33  32 NW6       29.85S                  
NASHUA NH      CLOUDY    61  30  31 W5        29.87S                  
PORTSMOUTH NH  CLOUDY    61  30  31 W6        29.86S                  
JAFFREY NH     CLOUDY    58  29  33 SW3       29.88S                  
KEENE NH       CLOUDY    58  33  39 S6        29.88S                  
BURLINGTON VT  PTSUNNY   60  30  32 N5        29.85F                  
MT. WASHINGTON MOCLDY    30  27  86 NW24        N/A  WCI  16          
$$

NYZ052-076-100000-
EASTERN NEW YORK
  
CITY           SKY/WX    TMP DP  RH WIND       PRES   REMARKS
ALBANY         LGT RAIN  51  40  65 SW8       29.91R                  
NEW YORK CITY  LGT RAIN  51  43  74 CALM      29.97R                  
$$
 
ANZALL-100000-
MARINE OBSERVATIONS
  
STATION/POSITION TIME  TEMP    WIND        PRES    VSBY  WAVE
                       AIR SEA DIR/SP/G                  HT/PER
                 (UTC) (F)     (DEG/KT/KT) (MB)    (MI)  (FT/S)
BOSTON BUOY      2250   55 49  230/  8/ 12 1011.5R         2/ 9
BUZZARDS BAY     2200          230/ 26/ 28 1014.0F
NANTUCKET SOUND  2250      53                N/A           3/ 3
MASS BAY-STELLWA 2204   55     220/ 10/ 12 1010.0F  1 7/8  2/11
ISLE OF SHOALS   2200   52     180/ 13/ 15 1010.5F
S OF BLOCK IS    2226      49                N/A           5/ 6
$$

......................KEY.........................
  SKY/WX - SKY CONDITION/PRESENT WEATHER
  TMP    - TEMPERATURE IN FAHRENHEIT
  DWPT   - DEWPOINT IN FAHRENHEIT
  RH     - RELATIVE HUMIDITY IN PERCENT
  WIND   - DIRECTION AND SPEED IN MPH
  PRES   - MEAN SEA LEVEL PRESSURE IN INCHES OF HG
  WCI    - WIND CHILL INDEX
  VSB    - VISIBILITY IN MILES
  HX     - HEAT INDEX
  TC     - TEMPERATURE IN CELSIUS
  VRB    - VARIABLE WIND DIRECTION
  N/A    - NOT AVAILABLE
  
      

Other recent Regional Weather Roundups

Wed May 12, 2:04am

Wed May 12, 1:04am

Wed May 12, 12:05am

Tue May 11, 11:05pm

Tue May 11, 10:04pm

Tue May 11, 9:05pm

Tue May 11, 8:05pm

Tue May 11, 7:04pm

Tue May 11, 6:04pm

Tue May 11, 5:04pm

Tue May 11, 4:05pm

Tue May 11, 3:04pm

Tue May 11, 2:05pm

Tue May 11, 1:04pm

Tue May 11, 12:05pm

Tue May 11, 11:05am

Tue May 11, 10:04am

Tue May 11, 9:04am

Tue May 11, 8:04am

Tue May 11, 7:05am

Tue May 11, 6:04am

Tue May 11, 5:04am

Tue May 11, 4:04am

Tue May 11, 3:04am

Tue May 11, 2:04am

Tue May 11, 1:04am

Tue May 11, 12:04am

Mon May 10, 11:04pm

Mon May 10, 10:04pm

Mon May 10, 9:05pm

Mon May 10, 8:04pm

Mon May 10, 7:05pm

Mon May 10, 6:04pm

Mon May 10, 5:04pm

Mon May 10, 4:04pm

Mon May 10, 3:04pm

Mon May 10, 2:04pm

Mon May 10, 1:04pm

Mon May 10, 12:04pm

Mon May 10, 11:05am

Mon May 10, 10:04am

Mon May 10, 9:04am

Mon May 10, 8:04am

Mon May 10, 7:04am

Mon May 10, 6:04am

Mon May 10, 5:05am

Mon May 10, 4:04am

Mon May 10, 3:04am

Mon May 10, 2:04am

Mon May 10, 1:04am

Mon May 10, 12:04am

Sun May 9, 11:04pm

Sun May 9, 10:04pm

Sun May 9, 9:04pm

Sun May 9, 8:04pm

Sun May 9, 6:04pm

Sun May 9, 5:04pm

Sun May 9, 4:04pm

Sun May 9, 3:04pm

Sun May 9, 2:04pm

Sun May 9, 1:05pm

Sun May 9, 12:04pm

Sun May 9, 11:05am

Sun May 9, 10:04am

Sun May 9, 9:04am

Sun May 9, 8:04am

Sun May 9, 7:04am

Sun May 9, 6:04am

Sun May 9, 5:04am

Sun May 9, 4:04am

Sun May 9, 3:04am

Sun May 9, 2:04am

Sun May 9, 1:05am

Sun May 9, 12:04am

Sat May 8, 11:05pm

Sat May 8, 10:04pm

Sat May 8, 9:05pm

Sat May 8, 8:04pm

Sat May 8, 7:04pm

Sat May 8, 6:04pm

Sat May 8, 5:05pm

Sat May 8, 4:04pm

Sat May 8, 3:05pm

Sat May 8, 2:05pm

Sat May 8, 1:05pm

Sat May 8, 12:04pm

Sat May 8, 11:05am

Sat May 8, 10:04am

Sat May 8, 9:04am

Sat May 8, 8:04am

Sat May 8, 7:04am

Sat May 8, 6:04am

Sat May 8, 5:04am

Sat May 8, 4:04am

Sat May 8, 3:04am

Sat May 8, 2:04am

Sat May 8, 1:05am

Sat May 8, 12:04am

Fri May 7, 11:04pm

Fri May 7, 10:05pm

Fri May 7, 9:04pm

Fri May 7, 8:04pm

Fri May 7, 7:05pm

Fri May 7, 6:04pm

Fri May 7, 5:05pm

Fri May 7, 4:04pm

Fri May 7, 3:04pm

Fri May 7, 2:05pm

Fri May 7, 1:04pm

Fri May 7, 12:04pm

Fri May 7, 11:05am

Fri May 7, 10:04am

Fri May 7, 9:04am

Fri May 7, 8:05am

Fri May 7, 7:04am

Fri May 7, 6:04am

Fri May 7, 5:04am

Fri May 7, 4:04am

Fri May 7, 3:04am

Fri May 7, 2:05am

Fri May 7, 1:04am

Fri May 7, 12:05am

Thu May 6, 11:04pm

Thu May 6, 10:04pm

Thu May 6, 9:05pm

Thu May 6, 8:04pm

Thu May 6, 7:04pm

Thu May 6, 6:04pm

Thu May 6, 5:05pm

Thu May 6, 4:04pm

Thu May 6, 3:04pm

Thu May 6, 2:05pm

Thu May 6, 1:04pm

Thu May 6, 12:04pm

Thu May 6, 11:04am

Thu May 6, 10:04am

Thu May 6, 9:04am

Thu May 6, 8:04am

Thu May 6, 7:04am

Thu May 6, 6:04am

Thu May 6, 5:04am

Thu May 6, 4:04am

Thu May 6, 3:04am

Thu May 6, 2:05am

Thu May 6, 1:04am

Thu May 6, 12:05am

Wed May 5, 11:04pm

Wed May 5, 10:04pm

Wed May 5, 9:05pm

Wed May 5, 8:04pm

Wed May 5, 7:05pm

Wed May 5, 6:04pm

Wed May 5, 5:04pm

Wed May 5, 4:04pm

Wed May 5, 3:04pm

Wed May 5, 2:05pm

Wed May 5, 1:05pm

Wed May 5, 12:04pm

Wed May 5, 11:05am

Wed May 5, 10:04am

Wed May 5, 9:04am

Wed May 5, 8:04am

Wed May 5, 7:04am

Wed May 5, 6:05am

Wed May 5, 5:04am

Wed May 5, 4:04am

Wed May 5, 3:04am

Meta data:

ID: 4e639a2d-3dc1-459b-9234-08ae0fe5053c
Link: https://api.weather.gov/products/4e639a2d-3dc1-459b-9234-08ae0fe5053c